SCP
1 1 1 1 0 0 0 0 0 0 0 0 0 0 0 0 0 0 0 0 0 0 0 0 0 0 0 0 0 0 0 0 0 0 0 0 0 0 0 0 0 0 0
1 1 1 1 0 0 0 0 0 0 0 0 0 0 0 0 0 0 0 0 0 0 0 0 0 0 0 0 0 0 0 0 0 0 0 0 0 0 0 0 0 0 0
1 1 1 1 1 1 0 0 0 0 0 0 0 0 0 0 0 0 0 0 0 0 0 0 0 0 0 0 0 0 0 0 0 0 0 0 0 0 0 0 0 0 0
1 1 1 1 1 1 1 0 0 0 0 0 0 0 0 0 0 0 0 0 0 0 0 0 0 0 0 0 0 0 0 0 0 0 0 0 0 0 0 0 0 0 0
1 1 1 1 1 1 1 1 1 1 0 0 0 0 0 0 0 0 0 0 0 0 0 0 0 0 0 0 0 0 0 0 0 0 0 0 0 0 0 0 0 0 0
1 1 1 1 1 1 1 1 1 1 0 0 0 0 0 0 0 0 0 0 0 0 0 0 0 0 0 0 0 0 0 0 0 0 0 0 0 0 0 0 0 0 0
1 1 1 1 1 1 1 1 1 0 0 0 0 0 0 0 0 0 0 0 0 0 0 0 0 0 0 0 0 0 0 0 0 0 0 0 0 0 0 0 0 0 0
1 1 1 1 1 1 1 1 0 0 0 0 0 0 0 0 0 0 0 0 0 0 0 0 0 0 0 0 0 0 0 0 0 0 0 0 0 0 0 0 0 0 0
0 0 1 1 1 1 1 1 1 0 0 0 0 0 0 0 0 0 0 0 0 0 0 0 0 0 0 0 0 0 0 0 0 0 0 0 0 0 0 0 0 0 0
0 0 0 1 1 1 1 1 1 0 0 0 0 0 0 0 0 0 0 0 0 0 0 0 0 0 0 0 0 0 0 0 0 0 0 0 0 0 0 0 0 0 0
0 0 0 0 0 0 0 0 0 0 0 0 0 0 0 0 0 0 0 0 0 0 0 0 0 0 0 0 0 0 0 0 0 0 0 0 0 0 0 0 0 0 0
0 0 0 0 0 0 0 0 0 0 0 0 0 0 0 0 0 0 0 0 0 0 0 0 0 0 0 0 0 0 0 0 0 0 0 0 0 0 0 0 0 0 0
0 0 0 0 0 0 0 0 0 0 0 0 0 0 0 0 0 0 0 0 0 0 0 0 0 0 0 0 0 0 0 0 0 0 0 0 0 0 0 0 0 0 0
0 0 0 0 0 0 0 0 0 0 0 0 0 0 0 0 0 0 0 0 0 0 0 0 0 0 0 0 0 0 0 0 0 0 0 0 0 0 0 0 0 0 0
0 0 0 0 0 0 0 0 0 0 0 0 0 0 0 0 0 0 0 0 0 0 0 0 0 0 0 0 0 0 0 0 0 0 0 0 0 0 0 0 0 0 0
0 0 0 0 0 0 0 0 0 0 0 0 0 0 0 0 0 0 0 0 0 0 0 0 0 0 0 0 0 0 0 0 0 0 0 0 0 0 0 0 0 0 0
0 0 0 0 0 0 0 0 0 0 0 0 0 0 0 0 0 0 0 0 0 0 0 0 0 0 0 0 0 0 0 0 0 0 0 0 0 0 0 0 0 0 0
0 0 0 0 0 0 0 0 0 0 0 0 0 0 0 0 0 0 0 0 0 0 0 0 0 0 0 0 0 0 0 0 0 0 0 0 0 0 0 0 0 0 0
0 0 0 0 0 0 0 0 0 0 0 0 0 0 0 0 0 0 0 0 0 0 0 0 0 0 0 0 0 0 0 0 0 0 0 0 0 0 0 0 0 0 0
0 0 0 0 0 0 0 0 0 0 0 0 0 0 0 0 0 0 0 0 0 0 0 0 0 0 0 0 0 0 0 0 0 0 0 0 0 0 0 0 0 0 0
0 0 0 0 0 0 0 0 0 0 0 0 0 0 0 0 0 0 0 0 0 0 0 0 0 0 0 0 0 0 0 0 0 0 0 0 0 0 0 0 0 0 0
0 0 0 0 0 0 0 0 0 0 0 0 0 0 0 0 0 0 0 0 0 0 0 0 0 0 0 0 0 0 0 0 0 0 0 0 0 0 0 0 0 0 0
0 0 0 0 0 0 0 0 0 0 0 0 0 0 0 0 0 0 0 0 0 0 0 0 0 0 0 0 0 0 0 0 0 0 0 0 0 0 0 0 0 0 0
0 0 0 0 0 0 0 0 0 0 0 0 0 0 0 0 0 0 0 0 0 0 0 0 0 0 0 0 0 0 0 0 0 0 0 0 0 0 0 0 0 0 0
0 0 0 0 0 0 0 0 0 0 0 0 0 0 0 0 0 0 0 0 0 0 0 0 0 0 0 0 -0 -0 -0 0 0 0 0 0 0 0 0 0 0 0 0
0 0 0 0 0 0 0 0 0 0 0 0 0 0 0 0 0 0 0 0 0 0 0 0 0 0 0 -0 -0 -0 -0 -0 0 0 0 0 -0 0 0 0 0 0 0
Wind_Speed
3 3 3 2 3 2 3 4 4 3 4 5 5 5 6 5 5 5 3 7 6 7 8 9 10 11 11 11 11 10 10 10 9 8 8 8 7 8 8 8 8 8 8
2 2 3 3 3 3 2 3 3 3 4 4 5 5 6 5 5 5 5 5 8 6 7 8 9 10 11 11 11 11 11 10 10 9 9 8 8 8 8 8 9 8 8
2 2 3 3 2 2 3 4 4 4 4 5 5 5 5 5 5 5 5 4 4 8 7 7 7 7 9 10 11 11 11 10 10 10 10 10 9 9 9 9 9 9 8
2 3 3 2 2 3 3 4 4 4 4 4 4 4 4 3 5 5 5 4 4 4 6 7 6 7 8 10 11 11 11 11 11 11 11 10 10 10 9 9 9 9 9
2 2 2 2 3 3 3 4 3 3 4 4 4 4 4 4 3 4 5 5 4 4 4 5 6 7 8 9 10 10 10 11 11 11 11 11 11 10 10 10 10 9 9
1 2 2 2 3 3 3 3 3 3 3 3 4 4 4 3 3 3 4 4 3 4 5 4 3 5 7 9 9 9 9 10 10 11 11 11 11 11 11 11 10 10 10
1 2 2 2 3 3 3 3 3 4 3 3 4 4 4 4 4 3 3 3 3 3 3 3 3 2 3 7 8 8 9 9 10 10 10 10 11 11 11 11 11 11 11
2 2 2 2 2 2 3 3 3 3 3 3 3 3 4 4 4 4 3 2 2 2 2 2 2 2 3 2 4 9 9 8 9 9 10 10 11 11 11 11 11 11 11
2 3 2 2 2 3 2 2 3 4 4 3 4 4 4 3 1 3 2 2 1 1 1 1 1 2 2 1 2 5 7 7 9 10 11 11 11 11 12 11 11 11 11
3 3 3 3 3 2 2 3 3 4 4 4 4 5 5 4 3 2 3 2 1 0 1 1 1 1 0 0 1 4 7 8 9 11 11 11 11 10 11 11 11 10 11
2 3 3 3 2 2 2 3 3 4 4 5 4 4 5 4 6 5 3 2 2 1 0 0 1 1 1 1 1 4 8 9 10 11 11 11 10 11 11 11 11 11 11
2 3 3 3 3 3 2 3 4 4 4 5 5 5 5 4 5 5 4 3 2 1 2 2 1 1 2 2 4 8 10 10 10 9 10 10 10 9 10 11 10 10 10
2 3 4 3 3 3 3 3 3 3 4 5 5 5 5 5 4 4 4 3 2 1 1 2 2 2 3 3 4 10 12 12 11 11 10 10 10 9 10 9 9 8 8
3 3 4 3 3 3 3 3 3 3 3 3 4 4 4 4 4 4 4 3 3 2 1 2 1 2 3 4 7 9 9 13 12 11 10 10 10 10 10 10 10 8 8
3 3 3 3 3 2 2 2 1 2 2 2 3 3 4 3 4 4 4 4 4 4 3 3 2 3 4 4 7 7 7 12 12 11 11 10 10 10 9 9 9 8 8
3 3 3 2 2 1 1 1 1 0 1 1 1 2 3 3 3 3 4 3 3 3 3 2 3 4 5 6 8 7 8 11 11 10 10 10 10 9 9 9 8 8 8
3 3 2 2 2 2 2 1 1 1 1 1 1 1 2 2 2 2 2 2 3 3 4 3 4 6 7 7 6 5 6 5 7 10 9 8 8 8 7 7 7 6 6
3 3 2 2 2 2 2 2 2 2 2 2 1 1 1 1 1 1 2 3 3 4 7 9 6 6 7 7 7 6 5 5 5 9 8 7 6 6 6 6 6 5 4
4 3 3 3 3 3 3 3 3 3 3 3 2 2 2 1 1 2 3 4 4 5 7 9 8 6 5 6 7 7 6 4 5 7 7 7 6 6 5 5 5 5 5
4 4 4 4 4 4 3 4 4 4 4 4 4 4 3 2 2 4 4 6 6 7 8 9 8 7 6 6 5 6 5 4 4 4 5 5 6 7 7 6 7 7 7
4 4 4 4 5 4 5 4 4 4 5 5 6 6 6 7 6 5 5 7 8 8 8 8 8 7 7 6 6 5 6 5 4 3 4 4 5 5 7 9 9 9 9
5 5 5 6 7 6 7 7 4 4 5 6 7 7 7 9 11 11 11 10 8 8 9 8 8 8 8 7 5 5 5 5 4 3 3 3 3 3 4 5 7 8 9
6 6 6 7 8 8 8 7 6 5 6 7 7 6 7 8 9 11 12 12 11 9 6 5 9 8 8 6 5 5 4 3 3 3 2 2 3 3 3 4 9 8 8
6 6 6 7 8 9 9 7 5 7 8 9 8 8 8 9 9 9 11 11 10 8 5 5 7 6 6 5 4 4 5 5 4 3 2 2 2 3 2 3 10 9 9
6 6 6 7 8 8 10 9 5 7 8 10 9 9 9 10 8 6 10 11 10 8 10 11 10 9 8 4 1 2 4 3 4 4 2 2 1 2 3 4 7 12 12
6 6 7 7 7 8 10 10 6 6 8 8 8 9 12 10 8 5 8 9 10 9 8 9 8 7 7 5 1 1 1 1 2 2 3 2 2 2 2 3 3 5 8
Wind_Direction
217 209 223 236 240 222 213 233 242 233 239 239 245 243 247 253 258 254 198 165 197 223 229 226 219 216 214 213 210 204 203 198 192 186 178 172 167 162 157 153 148 142 136
215 222 226 228 245 248 250 247 242 235 242 253 252 252 253 251 249 248 252 189 186 206 223 229 224 220 217 213 207 206 204 197 192 186 181 177 169 160 157 154 151 145 140
215 234 241 232 243 252 244 242 241 245 238 237 245 251 251 252 255 250 250 253 217 198 208 223 227 222 216 212 208 206 200 193 189 185 182 177 169 162 159 157 154 149 143
223 236 251 250 247 247 241 237 238 244 251 253 248 249 249 242 245 249 247 245 253 241 207 206 216 217 215 213 212 206 197 194 190 187 183 179 173 167 162 159 154 151 146
244 246 255 260 249 250 253 255 234 247 250 255 256 247 247 240 238 244 248 251 250 253 249 201 205 215 217 217 210 201 198 197 192 187 185 183 176 170 164 159 156 152 150
276 273 249 253 252 244 244 254 254 250 253 247 260 261 260 253 249 248 251 247 246 248 245 240 217 210 210 212 207 200 197 193 186 184 182 177 171 167 162 155 152 150 148
335 290 282 253 261 260 256 251 250 242 242 237 252 253 241 235 239 245 246 249 246 251 256 247 239 245 216 204 205 201 196 191 186 185 181 173 168 162 158 154 152 149 145
343 291 298 292 279 269 253 249 245 250 242 233 253 264 249 221 208 223 224 222 239 250 254 247 242 237 249 224 189 196 191 184 184 178 175 170 168 163 158 156 154 150 149
348 341 316 310 292 274 271 262 255 252 255 241 238 253 264 260 212 181 197 217 229 246 276 293 269 257 239 232 216 181 166 173 180 175 166 162 160 160 159 158 156 155 153
3 352 331 316 299 294 289 273 263 257 255 251 241 243 258 283 270 235 189 186 174 221 279 288 297 321 45 215 132 137 147 152 155 153 149 149 154 159 159 157 157 158 157
12 357 343 330 316 314 312 290 271 256 250 251 247 246 245 244 248 256 250 211 181 152 107 54 46 45 52 70 98 118 127 129 133 139 143 147 148 152 150 150 148 150 151
5 14 357 352 337 332 308 286 272 258 258 256 255 250 247 242 236 236 243 241 223 139 78 53 46 60 65 78 105 119 119 118 123 130 135 140 144 149 149 148 149 153 151
355 5 349 338 335 316 299 290 272 274 262 254 251 253 251 252 257 247 241 236 224 160 110 71 46 67 78 73 93 110 111 111 114 117 121 125 129 134 139 142 141 141 142
359 354 335 328 322 313 306 301 283 277 272 263 257 255 254 247 241 238 238 221 204 188 152 126 82 78 87 88 85 91 99 101 104 106 112 117 119 122 122 122 122 123 131
356 351 335 328 329 330 319 296 299 298 286 279 270 259 257 253 245 237 231 227 216 194 171 147 123 104 99 94 97 96 97 102 103 102 102 105 108 111 114 115 121 127 130
1 350 346 337 333 336 330 315 308 6 306 297 285 280 267 261 250 241 230 224 219 197 151 126 118 118 111 105 101 96 99 105 103 103 101 103 106 108 114 121 127 129 131
6 1 356 349 358 19 29 33 34 41 26 354 310 277 274 276 261 240 212 199 187 159 139 117 106 115 114 113 110 100 103 104 109 109 109 111 115 121 124 130 132 135 138
11 12 12 20 27 37 40 45 43 43 43 33 14 1 339 282 250 215 162 155 152 149 141 131 124 120 114 117 111 107 108 111 113 114 113 118 129 135 137 143 146 153 162
24 25 25 35 41 43 49 50 47 48 46 47 41 38 28 42 106 113 124 127 128 126 126 128 124 119 113 118 118 112 112 115 125 131 138 148 151 150 157 169 176 185 195
35 38 39 43 48 48 52 59 65 62 61 60 55 49 48 65 94 113 114 119 120 119 121 122 121 121 121 126 129 132 131 140 141 148 144 155 160 176 187 194 200 208 215
44 52 52 52 49 47 37 42 71 74 72 70 67 64 64 66 61 80 107 119 125 125 125 124 126 129 132 143 143 145 136 140 142 158 160 173 176 189 188 201 210 216 223
48 54 53 51 48 45 27 16 27 79 79 79 80 83 87 85 80 80 82 88 104 124 129 131 134 136 141 145 144 151 147 151 149 162 185 180 188 190 194 192 176 196 219
57 55 54 58 56 46 34 25 20 70 78 76 78 82 86 92 100 103 98 94 85 81 101 125 129 135 139 146 151 148 146 145 118 140 192 175 181 196 209 158 164 199 220
58 59 57 60 62 49 31 26 30 78 78 76 74 77 85 90 90 104 107 103 100 91 88 97 107 117 123 132 149 145 145 151 154 153 198 214 184 208 213 189 177 205 223
65 66 62 61 63 52 27 16 24 87 82 75 71 69 81 89 67 85 106 105 101 97 81 79 82 89 91 92 55 169 160 168 153 147 180 261 237 231 230 221 186 198 220
69 70 64 58 59 53 29 17 11 89 89 87 82 77 64 69 57 58 106 110 109 109 114 115 113 124 127 126 149 282 208 182 159 151 148 253 259 261 253 225 230 209 221